"read_dt","SO2 (ppb)","flags","PMT voltage (V)","lamp voltage (V)","lamp intensity (Hz)","internal temp (C)","react chamber temp (C)","sample flow (l/min)","pres (mmHg)","SO2 bkg (ppb)","SO2 coefficient"
2014-04-02 00:00:00,3158E-2,5C000400,-0724,0977,10683,021.3,045.1,0.165,760.6,01.16,0.508
2014-04-02 00:01:00,3111E-2,5C000400,-0724,0977,10506,021.3,045.1,0.165,760.5,01.16,0.508
2014-04-02 00:02:00,3127E-2,5C000400,-0724,0977,10907,021.3,045.1,0.165,760.6,01.16,0.508
2014-04-02 00:03:00,3128E-2,5C000400,-0724,0978,10703,021.3,045.1,0.165,760.4,01.16,0.508
2014-04-02 00:04:00,3127E-2,5C000400,-0724,0977,10765,021.3,045.1,0.165,760.4,01.16,0.508
2014-04-02 00:05:00,3125E-2,5C000400,-0724,0977,10803,021.4,045.0,0.165,760.4,01.16,0.508
2014-04-02 00:06:00,3155E-2,5C000400,-0724,0978,10760,021.3,045.1,0.165,760.3,01.16,0.508
2014-04-02 00:07:00,3145E-2,5C000400,-0724,0976,10898,021.3,045.0,0.165,760.5,01.16,0.508
2014-04-02 00:08:00,3085E-2,5C000400,-0724,0976,10785,021.3,045.1,0.165,760.5,01.16,0.508
2014-04-02 00:09:00,3090E-2,5C000400,-0724,0974,10894,021.3,045.1,0.165,760.5,01.16,0.508
2014-04-02 00:10:00,3129E-2,5C000400,-0724,0975,10864,021.3,045.1,0.165,760.3,01.16,0.508
2014-04-02 00:11:00,3088E-2,5C000400,-0724,0974,10819,021.3,045.1,0.165,760.5,01.16,0.508
2014-04-02 00:12:00,3116E-2,5C000400,-0724,0975,10821,021.4,045.0,0.165,760.5,01.16,0.508
2014-04-02 00:13:00,3066E-2,5C000400,-0724,0977,10550,021.4,045.0,0.165,760.5,01.16,0.508
2014-04-02 00:14:00,3104E-2,5C000400,-0724,0975,10799,021.4,045.1,0.165,760.5,01.16,0.508
2014-04-02 00:15:00,3110E-2,5C000400,-0724,0974,10687,021.4,045.1,0.165,760.1,01.16,0.508
2014-04-02 00:16:00,3090E-2,5C000400,-0724,0976,10811,021.4,045.1,0.165,760.2,01.16,0.508
2014-04-02 00:17:00,3145E-2,5C000400,-0724,0975,10898,021.4,045.1,0.165,760.3,01.16,0.508
2014-04-02 00:18:00,3098E-2,5C000400,-0724,0974,10742,021.4,045.1,0.165,760.3,01.16,0.508
2014-04-02 00:19:00,3114E-2,5C000400,-0724,0974,10713,021.3,045.1,0.165,760.1,01.16,0.508
2014-04-02 00:20:00,3093E-2,5C000400,-0724,0975,10879,021.4,045.1,0.164,760.4,01.16,0.508
2014-04-02 00:21:00,3037E-2,5C000400,-0724,0974,10784,021.4,045.1,0.165,760.3,01.16,0.508
2014-04-02 00:22:00,3036E-2,5C000400,-0724,0974,10873,021.4,045.1,0.165,760.2,01.16,0.508
2014-04-02 00:23:00,3116E-2,5C000400,-0724,0974,10929,021.4,045.1,0.164,760.3,01.16,0.508
2014-04-02 00:24:00,3060E-2,5C000400,-0724,0975,10769,021.4,045.0,0.165,760.1,01.16,0.508
2014-04-02 00:25:00,3087E-2,5C000400,-0724,0974,10716,021.4,045.0,0.165,760.1,01.16,0.508
2014-04-02 00:26:00,3124E-2,5C000400,-0724,0975,10988,021.4,045.1,0.165,760.2,01.16,0.508
2014-04-02 00:27:00,3100E-2,5C000400,-0724,0975,10774,021.4,045.1,0.165,760.1,01.16,0.508
2014-04-02 00:28:00,3056E-2,5C000400,-0724,0974,10816,021.4,045.1,0.165,760.2,01.16,0.508
2014-04-02 00:29:00,3063E-2,5C000400,-0724,0974,10783,021.4,045.1,0.164,760.0,01.16,0.508
2014-04-02 00:30:00,3073E-2,5C000400,-0724,0976,10578,021.4,045.1,0.165,760.1,01.16,0.508
2014-04-02 00:31:00,3086E-2,5C000400,-0724,0974,10818,021.4,045.1,0.164,760.1,01.16,0.508
2014-04-02 00:32:00,3023E-2,5C000400,-0724,0975,10908,021.4,045.1,0.164,760.2,01.16,0.508
2014-04-02 00:33:00,3083E-2,5C000400,-0724,0974,10804,021.4,045.0,0.165,760.1,01.16,0.508
2014-04-02 00:34:00,3082E-2,5C000400,-0724,0975,10637,021.4,045.1,0.165,760.1,01.16,0.508
2014-04-02 00:35:00,3093E-2,5C000400,-0724,0976,10646,021.4,045.1,0.165,760.0,01.16,0.508
2014-04-02 00:36:00,3072E-2,5C000400,-0724,0975,10695,021.4,045.0,0.164,759.9,01.16,0.508
2014-04-02 00:37:00,3053E-2,5C000400,-0724,0976,10618,021.4,045.1,0.165,760.1,01.16,0.508
2014-04-02 00:38:00,3085E-2,5C000400,-0724,0975,10862,021.4,045.1,0.165,760.0,01.16,0.508
2014-04-02 00:39:00,3035E-2,5C000400,-0724,0975,10804,021.4,045.1,0.165,759.9,01.16,0.508
2014-04-02 00:40:00,3086E-2,5C000400,-0724,0974,10662,021.4,045.1,0.164,759.9,01.16,0.508
2014-04-02 00:41:00,3070E-2,5C000400,-0724,0975,10822,021.4,045.1,0.164,759.9,01.16,0.508
2014-04-02 00:42:00,3083E-2,5C000400,-0724,0973,10618,021.4,045.1,0.164,759.8,01.16,0.508
2014-04-02 00:43:00,3046E-2,5C000400,-0724,0974,10821,021.4,045.1,0.164,759.9,01.16,0.508
2014-04-02 00:44:00,3075E-2,5C000400,-0724,0974,10835,021.4,045.1,0.164,759.9,01.16,0.508
2014-04-02 00:45:00,3103E-2,5C000400,-0724,0974,10787,021.4,045.1,0.164,759.9,01.16,0.508
2014-04-02 00:46:00,2999E-2,5C000400,-0724,0974,10790,021.4,045.1,0.164,760.0,01.16,0.508
2014-04-02 00:47:00,3015E-2,5C000400,-0724,0974,10801,021.4,045.1,0.164,759.9,01.16,0.508
2014-04-02 00:48:00,3050E-2,5C000400,-0724,0973,10762,021.4,045.1,0.164,759.8,01.16,0.508
2014-04-02 00:49:00,3062E-2,5C000400,-0724,0973,10889,021.5,045.1,0.164,759.9,01.16,0.508
2014-04-02 00:50:00,3015E-2,5C000400,-0724,0975,10654,021.4,045.1,0.164,759.8,01.16,0.508
2014-04-02 00:51:00,3114E-2,5C000400,-0724,0974,10786,021.5,045.1,0.164,759.8,01.16,0.508
2014-04-02 00:52:00,3043E-2,5C000400,-0724,0974,10795,021.5,045.1,0.164,759.8,01.16,0.508
2014-04-02 00:53:00,3025E-2,5C000400,-0724,0975,10847,021.5,045.1,0.164,759.6,01.16,0.508
2014-04-02 00:54:00,3060E-2,5C000400,-0724,0974,10810,021.5,045.1,0.164,759.6,01.16,0.508
2014-04-02 00:55:00,3046E-2,5C000400,-0724,0975,10799,021.5,045.1,0.164,759.7,01.16,0.508
2014-04-02 00:56:00,3043E-2,5C000400,-0724,0974,10620,021.5,045.1,0.164,759.7,01.16,0.508
2014-04-02 00:57:00,2990E-2,5C000400,-0724,0974,10762,021.5,045.1,0.164,759.8,01.16,0.508
2014-04-02 00:58:00,3061E-2,5C000400,-0724,0973,10864,021.5,045.1,0.164,759.8,01.16,0.508
2014-04-02 00:59:00,3046E-2,5C000400,-0724,0975,10729,021.5,045.1,0.164,759.8,01.16,0.508
2014-04-02 01:00:00,3020E-2,5C000400,-0724,0975,10724,021.5,045.1,0.164,759.5,01.16,0.508
2014-04-02 01:01:00,2998E-2,5C000400,-0724,0974,10912,021.5,045.1,0.164,759.7,01.16,0.508
2014-04-02 01:02:00,3006E-2,5C000400,-0724,0975,10809,021.5,045.1,0.164,759.7,01.16,0.508
2014-04-02 01:03:00,3084E-2,5C000400,-0724,0975,10743,021.5,045.1,0.164,759.4,01.16,0.508
2014-04-02 01:04:00,3078E-2,5C000400,-0724,0975,10731,021.5,045.0,0.164,759.4,01.16,0.508
2014-04-02 01:05:00,3067E-2,5C000400,-0724,0975,10756,021.5,045.1,0.164,759.6,01.16,0.508
2014-04-02 01:06:00,3086E-2,5C000400,-0724,0976,10814,021.5,045.1,0.164,759.4,01.16,0.508
2014-04-02 01:07:00,3068E-2,5C000400,-0724,0975,10757,021.5,045.1,0.164,759.4,01.16,0.508
2014-04-02 01:08:00,3052E-2,5C000400,-0724,0976,10845,021.5,045.1,0.164,759.5,01.16,0.508
2014-04-02 01:09:00,3053E-2,5C000400,-0724,0974,10694,021.5,045.1,0.164,759.2,01.16,0.508
2014-04-02 01:10:00,3068E-2,5C000400,-0724,0975,10658,021.5,045.1,0.164,759.4,01.16,0.508
2014-04-02 01:11:00,3029E-2,5C000400,-0724,0974,10721,021.5,045.1,0.164,759.1,01.16,0.508
2014-04-02 01:12:00,3054E-2,5C000400,-0724,0977,10682,021.5,045.1,0.164,759.2,01.16,0.508
2014-04-02 01:13:00,3041E-2,5C000400,-0724,0976,10828,021.5,045.1,0.164,759.3,01.16,0.508
2014-04-02 01:14:00,3048E-2,5C000400,-0724,0976,10767,021.5,045.0,0.164,759.4,01.16,0.508
2014-04-02 01:15:00,3065E-2,5C000400,-0724,0977,10894,021.6,045.1,0.164,759.3,01.16,0.508
2014-04-02 01:16:00,3014E-2,5C000400,-0724,0976,10784,021.6,045.1,0.164,759.1,01.16,0.508
2014-04-02 01:17:00,3090E-2,5C000400,-0724,0977,10827,021.6,045.1,0.164,759.2,01.16,0.508
2014-04-02 01:18:00,3067E-2,5C000400,-0724,0976,10599,021.6,045.1,0.164,759.2,01.16,0.508
2014-04-02 01:19:00,3067E-2,5C000400,-0724,0975,10770,021.6,045.1,0.164,759.3,01.16,0.508
2014-04-02 01:20:00,3112E-2,5C000400,-0724,0976,10699,021.6,045.1,0.164,759.1,01.16,0.508
2014-04-02 01:21:00,3098E-2,5C000400,-0724,0977,10693,021.6,045.0,0.164,759.0,01.16,0.508
2014-04-02 01:22:00,3064E-2,5C000400,-0724,0977,10807,021.6,045.1,0.164,759.0,01.16,0.508
2014-04-02 01:23:00,3119E-2,5C000400,-0724,0977,10600,021.6,045.1,0.164,759.2,01.16,0.508
2014-04-02 01:24:00,3083E-2,5C000400,-0724,0977,10613,021.6,045.1,0.164,759.2,01.16,0.508
2014-04-02 01:25:00,3072E-2,5C000400,-0724,0977,10837,021.6,045.1,0.164,759.3,01.16,0.508
2014-04-02 01:26:00,3071E-2,5C000400,-0724,0977,10651,021.6,045.1,0.164,759.1,01.16,0.508
2014-04-02 01:27:00,3035E-2,5C000400,-0724,0978,10693,021.6,045.1,0.164,759.1,01.16,0.508
2014-04-02 01:28:00,3047E-2,5C000400,-0724,0978,10714,021.6,045.1,0.164,759.2,01.16,0.508
2014-04-02 01:29:00,3066E-2,5C000400,-0724,0978,10833,021.6,045.1,0.164,759.3,01.16,0.508
2014-04-02 01:30:00,2978E-2,5C000400,-0724,0978,10639,021.6,045.1,0.164,759.0,01.16,0.508
2014-04-02 01:31:00,3002E-2,5C000400,-0724,0978,10694,021.6,045.1,0.164,759.3,01.16,0.508
2014-04-02 01:32:00,2994E-2,5C000400,-0724,0978,10704,021.6,045.1,0.164,759.3,01.16,0.508
2014-04-02 01:33:00,2977E-2,5C000400,-0724,0978,10552,021.7,045.1,0.164,759.1,01.16,0.508
2014-04-02 01:34:00,3024E-2,5C000400,-0724,0978,10811,021.7,045.1,0.164,759.2,01.16,0.508
2014-04-02 01:35:00,3030E-2,5C000400,-0724,0979,10715,021.7,045.1,0.164,759.3,01.16,0.508
2014-04-02 01:36:00,3005E-2,5C000400,-0724,0977,10807,021.7,045.1,0.164,759.1,01.16,0.508
2014-04-02 01:37:00,2996E-2,5C000400,-0724,0978,10724,021.7,045.1,0.164,759.1,01.16,0.508
2014-04-02 01:38:00,2987E-2,5C000400,-0724,0979,10571,021.7,045.1,0.164,759.1,01.16,0.508
2014-04-02 01:39:00,2947E-2,5C000400,-0724,0978,10812,021.7,045.1,0.164,759.3,01.16,0.508
2014-04-02 01:40:00,2990E-2,5C000400,-0724,0977,10639,021.7,045.0,0.164,759.0,01.16,0.508
2014-04-02 01:41:00,3005E-2,5C000400,-0724,0978,10802,021.7,045.1,0.164,759.0,01.16,0.508
2014-04-02 01:42:00,3018E-2,5C000400,-0724,0977,10672,021.7,045.1,0.164,759.2,01.16,0.508
2014-04-02 01:43:00,2996E-2,5C000400,-0724,0979,10795,021.7,045.1,0.164,759.0,01.16,0.508
2014-04-02 01:44:00,3026E-2,5C000400,-0724,0979,10596,021.7,045.1,0.164,759.0,01.16,0.508
2014-04-02 01:45:00,2966E-2,5C000400,-0724,0978,10773,021.7,045.1,0.164,759.0,01.16,0.508
2014-04-02 01:46:00,3001E-2,5C000400,-0724,0978,10764,021.7,045.1,0.164,759.0,01.16,0.508
2014-04-02 01:47:00,2982E-2,5C000400,-0724,0979,10795,021.8,045.1,0.164,758.9,01.16,0.508
2014-04-02 01:48:00,2976E-2,5C000400,-0724,0978,10718,021.8,045.1,0.164,759.1,01.16,0.508
2014-04-02 01:49:00,2994E-2,5C000400,-0724,0979,10741,021.7,045.1,0.164,759.0,01.16,0.508
2014-04-02 01:50:00,2974E-2,5C000400,-0724,0979,10664,021.8,045.0,0.164,759.0,01.16,0.508
2014-04-02 01:51:00,3006E-2,5C000400,-0724,0978,10666,021.8,045.1,0.164,758.9,01.16,0.508
2014-04-02 01:52:00,3051E-2,5C000400,-0724,0978,10847,021.8,045.1,0.164,758.9,01.16,0.508
2014-04-02 01:53:00,2948E-2,5C000400,-0724,0979,10755,021.8,045.1,0.164,758.9,01.16,0.508
2014-04-02 01:54:00,3016E-2,5C000400,-0724,0978,10577,021.8,045.1,0.164,758.8,01.16,0.508
2014-04-02 01:55:00,2982E-2,5C000400,-0724,0980,10822,021.8,045.1,0.164,758.7,01.16,0.508
2014-04-02 01:56:00,2974E-2,5C000400,-0724,0979,10738,021.8,045.1,0.164,758.7,01.16,0.508
2014-04-02 01:57:00,2997E-2,5C000400,-0724,0980,10683,021.8,045.1,0.164,758.8,01.16,0.508
2014-04-02 01:58:00,2988E-2,5C000400,-0724,0980,10698,021.8,045.1,0.163,758.7,01.16,0.508
2014-04-02 01:59:00,3069E-2,5C000400,-0724,0979,10771,021.8,045.1,0.164,758.6,01.16,0.508
2014-04-02 02:00:00,3045E-2,5C000400,-0724,0979,10733,021.8,045.1,0.163,758.6,01.16,0.508
2014-04-02 02:01:00,3062E-2,5C000400,-0724,0980,10817,021.9,045.1,0.163,758.4,01.16,0.508
2014-04-02 02:02:00,3024E-2,5C000400,-0724,0979,10774,021.9,045.1,0.163,758.5,01.16,0.508
2014-04-02 02:03:00,3008E-2,5C000400,-0724,0979,10771,021.9,045.1,0.164,758.5,01.16,0.508
2014-04-02 02:04:00,3046E-2,5C000400,-0724,0980,10581,021.8,045.1,0.163,758.4,01.16,0.508
2014-04-02 02:05:00,3065E-2,5C000400,-0724,0980,10750,021.9,045.1,0.163,758.4,01.16,0.508
2014-04-02 02:06:00,3045E-2,5C000400,-0724,0981,10794,021.9,045.1,0.163,758.4,01.16,0.508
2014-04-02 02:07:00,3033E-2,5C000400,-0724,0980,10762,021.9,045.0,0.163,758.2,01.16,0.508
2014-04-02 02:08:00,3026E-2,5C000400,-0724,0980,10696,021.9,045.0,0.163,758.2,01.16,0.508
2014-04-02 02:09:00,3081E-2,5C000400,-0724,0979,10767,021.9,045.1,0.163,758.2,01.16,0.508
2014-04-02 02:10:00,3092E-2,5C000400,-0724,0979,10790,021.9,045.1,0.163,758.1,01.16,0.508
2014-04-02 02:11:00,3072E-2,5C000400,-0724,0980,10757,021.9,045.1,0.163,758.2,01.16,0.508
2014-04-02 02:12:00,3085E-2,5C000400,-0724,0980,10706,021.9,045.1,0.163,758.1,01.16,0.508
2014-04-02 02:13:00,3086E-2,5C000400,-0724,0979,10615,021.9,045.1,0.163,758.2,01.16,0.508
2014-04-02 02:14:00,3093E-2,5C000400,-0724,0980,10674,021.9,045.1,0.163,758.1,01.16,0.508
2014-04-02 02:15:00,3044E-2,5C000400,-0724,0981,10759,021.9,045.1,0.163,758.1,01.16,0.508
2014-04-02 02:16:00,3062E-2,5C000400,-0724,0980,10721,021.9,045.1,0.163,758.2,01.16,0.508
2014-04-02 02:17:00,3017E-2,5C000400,-0724,0981,10776,021.9,045.1,0.163,758.2,01.16,0.508
2014-04-02 02:18:00,3083E-2,5C000400,-0724,0980,10710,021.9,045.1,0.163,758.1,01.16,0.508
2014-04-02 02:19:00,3075E-2,5C000400,-0724,0979,10707,021.9,045.1,0.163,758.2,01.16,0.508
2014-04-02 02:20:00,3026E-2,5C000400,-0724,0981,10600,022.0,045.1,0.163,758.0,01.16,0.508
2014-04-02 02:21:00,3020E-2,5C000400,-0724,0980,10733,022.0,045.1,0.163,758.1,01.16,0.508
2014-04-02 02:22:00,3046E-2,5C000400,-0724,0980,10797,022.0,045.1,0.163,758.2,01.16,0.508
2014-04-02 02:23:00,3050E-2,5C000400,-0724,0979,10598,021.9,045.1,0.163,758.0,01.16,0.508
2014-04-02 02:24:00,3043E-2,5C000400,-0724,0979,10676,022.0,045.1,0.163,758.1,01.16,0.508
2014-04-02 02:25:00,3033E-2,5C000400,-0724,0979,10759,021.9,045.1,0.163,758.0,01.16,0.508
2014-04-02 02:26:00,3082E-2,5C000400,-0724,0978,10687,022.0,045.1,0.163,757.9,01.16,0.508
2014-04-02 02:27:00,3082E-2,5C000400,-0724,0980,10753,022.0,045.1,0.163,758.0,01.16,0.508
2014-04-02 02:28:00,3073E-2,5C000400,-0724,0978,10725,022.0,045.1,0.163,758.0,01.16,0.508
2014-04-02 02:29:00,3092E-2,5C000400,-0724,0980,10765,022.0,045.1,0.163,757.9,01.16,0.508
2014-04-02 02:30:00,3053E-2,5C000400,-0724,0979,10823,022.0,045.1,0.163,757.9,01.16,0.508
2014-04-02 02:31:00,3055E-2,5C000400,-0724,0979,10811,022.0,045.1,0.163,757.8,01.16,0.508
2014-04-02 02:32:00,2997E-2,5C000400,-0724,0980,10498,022.0,045.1,0.163,757.7,01.16,0.508
2014-04-02 02:33:00,3082E-2,5C000400,-0724,0991,10628,022.0,045.1,0.163,757.8,01.16,0.508
2014-04-02 02:34:00,3051E-2,5C000400,-0724,0991,10645,022.0,045.1,0.163,757.6,01.16,0.508
2014-04-02 02:35:00,3082E-2,5C000400,-0724,0992,10621,022.0,045.1,0.163,757.7,01.16,0.508
2014-04-02 02:36:00,3044E-2,5C000400,-0724,0992,10728,022.0,045.1,0.163,757.5,01.16,0.508
2014-04-02 02:37:00,3120E-2,5C000400,-0724,0991,10637,022.0,045.1,0.163,757.6,01.16,0.508
2014-04-02 02:38:00,3110E-2,5C000400,-0724,0991,10680,022.0,045.1,0.163,757.7,01.16,0.508
2014-04-02 02:39:00,3135E-2,5C000400,-0724,0991,10672,022.0,045.1,0.163,757.5,01.16,0.508
2014-04-02 02:40:00,3126E-2,5C000400,-0724,0991,10516,022.1,045.1,0.163,757.6,01.16,0.508
2014-04-02 02:41:00,3074E-2,5C000400,-0724,0991,10568,022.1,045.1,0.163,757.6,01.16,0.508
2014-04-02 02:42:00,3071E-2,5C000400,-0724,0990,10667,022.1,045.1,0.163,757.7,01.16,0.508
2014-04-02 02:43:00,3078E-2,5C000400,-0724,0991,10610,022.1,045.1,0.163,757.6,01.16,0.508
2014-04-02 02:44:00,3065E-2,5C000400,-0724,0991,10560,022.1,045.1,0.163,757.6,01.16,0.508
2014-04-02 02:45:00,3067E-2,5C000400,-0724,0992,10571,022.1,045.1,0.163,757.6,01.16,0.508
2014-04-02 02:46:00,3113E-2,5C000400,-0724,0991,10692,022.1,045.1,0.163,757.5,01.16,0.508
2014-04-02 02:47:00,3093E-2,5C000400,-0724,0992,10563,022.1,045.1,0.163,757.3,01.16,0.508
2014-04-02 02:48:00,3099E-2,5C000400,-0724,0990,10513,022.1,045.1,0.163,757.6,01.16,0.508
2014-04-02 02:49:00,3089E-2,5C000400,-0724,0989,10537,022.1,045.1,0.163,757.4,01.16,0.508
2014-04-02 02:50:00,3090E-2,5C000400,-0724,0989,10642,022.1,045.1,0.163,757.3,01.16,0.508
2014-04-02 02:51:00,3060E-2,5C000400,-0724,0991,10636,022.1,045.1,0.163,757.4,01.16,0.508
2014-04-02 02:52:00,3049E-2,5C000400,-0724,0991,10678,022.1,045.1,0.163,757.2,01.16,0.508
2014-04-02 02:53:00,3079E-2,5C000400,-0724,0990,10690,022.1,045.0,0.163,757.3,01.16,0.508
2014-04-02 02:54:00,3049E-2,5C000400,-0724,0991,10534,022.1,045.1,0.163,757.4,01.16,0.508
2014-04-02 02:55:00,3085E-2,5C000400,-0724,0990,10589,022.1,045.1,0.163,757.4,01.16,0.508
2014-04-02 02:56:00,3113E-2,5C000400,-0724,0990,10675,022.1,045.1,0.163,757.2,01.16,0.508
2014-04-02 02:57:00,3022E-2,5C000400,-0724,0989,10598,022.1,045.1,0.163,757.2,01.16,0.508
2014-04-02 02:58:00,3075E-2,5C000400,-0724,0990,10691,022.1,045.1,0.163,757.3,01.16,0.508
2014-04-02 02:59:00,3060E-2,5C000400,-0724,0991,10731,022.2,045.1,0.163,757.2,01.16,0.508
2014-04-02 03:00:00,3063E-2,5C000400,-0724,0990,10586,022.1,045.1,0.163,757.2,01.16,0.508
2014-04-02 03:01:00,3065E-2,5C000400,-0724,0989,10637,022.1,045.1,0.163,757.2,01.16,0.508
2014-04-02 03:02:00,3090E-2,5C000400,-0724,0990,10597,022.1,045.1,0.163,757.2,01.16,0.508
2014-04-02 03:03:00,3056E-2,5C000400,-0724,0990,10743,022.1,045.1,0.163,757.0,01.16,0.508
2014-04-02 03:04:00,3110E-2,5C000400,-0724,0991,10783,022.1,045.1,0.163,757.2,01.16,0.508
2014-04-02 03:05:00,3128E-2,5C000400,-0724,0990,10703,022.1,045.1,0.163,756.9,01.16,0.508
2014-04-02 03:06:00,3092E-2,5C000400,-0724,0989,10611,022.2,045.1,0.163,757.0,01.16,0.508
2014-04-02 03:07:00,3063E-2,5C000400,-0724,0991,10621,022.2,045.1,0.163,757.1,01.16,0.508
2014-04-02 03:08:00,3055E-2,5C000400,-0724,0990,10784,022.2,045.1,0.163,757.3,01.16,0.508
2014-04-02 03:09:00,3065E-2,5C000400,-0724,0990,10747,022.2,045.1,0.163,757.2,01.16,0.508
2014-04-02 03:10:00,3076E-2,5C000400,-0724,0990,10404,022.2,045.1,0.162,757.2,01.16,0.508
2014-04-02 03:11:00,3053E-2,5C000400,-0724,0990,10629,022.2,045.1,0.163,757.1,01.16,0.508
2014-04-02 03:12:00,3133E-2,5C000400,-0724,0990,10624,022.2,045.1,0.162,757.1,01.16,0.508
2014-04-02 03:13:00,3081E-2,5C000400,-0724,0990,10704,022.2,045.1,0.163,757.2,01.16,0.508
2014-04-02 03:14:00,3035E-2,5C000400,-0724,0989,10693,022.2,045.1,0.162,757.2,01.16,0.508
2014-04-02 03:15:00,3081E-2,5C000400,-0724,0989,10681,022.2,045.1,0.162,757.1,01.16,0.508
2014-04-02 03:16:00,3109E-2,5C000400,-0724,0988,10464,022.2,045.1,0.162,757.1,01.16,0.508
2014-04-02 03:17:00,3065E-2,5C000400,-0724,0988,10632,022.2,045.1,0.162,757.2,01.16,0.508
2014-04-02 03:18:00,3059E-2,5C000400,-0724,0988,10696,022.2,045.1,0.162,757.2,01.16,0.508
2014-04-02 03:19:00,3086E-2,5C000400,-0724,0989,10566,022.2,045.1,0.162,757.1,01.16,0.508
2014-04-02 03:20:00,3116E-2,5C000400,-0724,0988,10706,022.2,045.1,0.162,756.9,01.16,0.508
2014-04-02 03:21:00,3049E-2,5C000400,-0724,0988,10669,022.2,045.1,0.162,757.1,01.16,0.508
2014-04-02 03:22:00,3093E-2,5C000400,-0724,0989,10626,022.2,045.1,0.162,757.1,01.16,0.508
2014-04-02 03:23:00,3085E-2,5C000400,-0724,0988,10395,022.2,045.1,0.162,756.9,01.16,0.508
2014-04-02 03:24:00,3046E-2,5C000400,-0724,0989,10635,022.2,045.1,0.162,757.0,01.16,0.508
2014-04-02 03:25:00,3071E-2,5C000400,-0724,0988,10345,022.3,045.1,0.162,756.9,01.16,0.508
2014-04-02 03:26:00,3078E-2,5C000400,-0724,0989,10712,022.2,045.1,0.162,756.9,01.16,0.508
2014-04-02 03:27:00,3054E-2,5C000400,-0724,0988,10584,022.2,045.1,0.162,756.7,01.16,0.508
2014-04-02 03:28:00,3061E-2,5C000400,-0724,0988,10615,022.3,045.1,0.162,756.7,01.16,0.508
2014-04-02 03:29:00,3056E-2,5C000400,-0724,0988,10538,022.3,045.1,0.162,756.7,01.16,0.508
2014-04-02 03:30:00,3088E-2,5C000400,-0724,0987,10568,022.3,045.1,0.162,756.6,01.16,0.508
2014-04-02 03:31:00,3062E-2,5C000400,-0724,0987,10596,022.2,045.1,0.162,756.7,01.16,0.508
2014-04-02 03:32:00,3043E-2,5C000400,-0724,0987,10609,022.2,045.1,0.162,756.7,01.16,0.508
2014-04-02 03:33:00,3039E-2,5C000400,-0724,0987,10547,022.2,045.1,0.162,756.7,01.16,0.508
2014-04-02 03:34:00,3058E-2,5C000400,-0724,0987,10515,022.3,045.1,0.162,756.7,01.16,0.508
2014-04-02 03:35:00,3096E-2,5C000400,-0724,0988,10671,022.3,045.1,0.162,756.7,01.16,0.508
2014-04-02 03:36:00,3086E-2,5C000400,-0724,0988,10589,022.3,045.1,0.162,756.6,01.16,0.508
2014-04-02 03:37:00,3065E-2,5C000400,-0724,0988,10440,022.3,045.1,0.162,756.7,01.16,0.508
2014-04-02 03:38:00,3066E-2,5C000400,-0724,0987,10530,022.3,045.1,0.162,756.7,01.16,0.508
2014-04-02 03:39:00,3063E-2,5C000400,-0724,0988,10716,022.3,045.1,0.162,756.5,01.16,0.508
2014-04-02 03:40:00,3048E-2,5C000400,-0724,0986,10545,022.3,045.1,0.162,756.6,01.16,0.508
2014-04-02 03:41:00,3073E-2,5C000400,-0724,0988,10538,022.3,045.1,0.162,756.6,01.16,0.508
2014-04-02 03:42:00,3027E-2,5C000400,-0724,0986,10651,022.3,045.1,0.162,756.3,01.16,0.508
2014-04-02 03:43:00,3033E-2,5C000400,-0724,0987,10676,022.3,045.1,0.162,756.4,01.16,0.508
2014-04-02 03:44:00,3092E-2,5C000400,-0724,0986,10814,022.3,045.1,0.162,756.5,01.16,0.508
2014-04-02 03:45:00,3053E-2,5C000400,-0724,0987,10699,022.3,045.1,0.162,756.4,01.16,0.508
2014-04-02 03:46:00,3070E-2,5C000400,-0724,0987,10656,022.3,045.1,0.162,756.6,01.16,0.508
2014-04-02 03:47:00,3081E-2,5C000400,-0724,0988,10683,022.3,045.1,0.162,756.5,01.16,0.508
2014-04-02 03:48:00,3045E-2,5C000400,-0724,0988,10608,022.3,045.1,0.162,756.3,01.16,0.508
2014-04-02 03:49:00,3048E-2,5C000400,-0724,0989,10693,022.3,045.1,0.162,756.3,01.16,0.508
2014-04-02 03:50:00,3002E-2,5C000400,-0724,0990,10627,022.3,045.1,0.162,756.1,01.16,0.508
2014-04-02 03:51:00,3025E-2,5C000400,-0724,0990,10552,022.3,045.1,0.162,756.3,01.16,0.508
2014-04-02 03:52:00,2987E-2,5C000400,-0724,0990,10734,022.3,045.1,0.162,756.3,01.16,0.508
2014-04-02 03:53:00,3017E-2,5C000400,-0724,0990,10744,022.3,045.1,0.162,756.4,01.16,0.508
2014-04-02 03:54:00,3007E-2,5C000400,-0724,0990,10699,022.3,045.1,0.162,756.2,01.16,0.508
2014-04-02 03:55:00,3037E-2,5C000400,-0724,0990,10687,022.3,045.1,0.162,756.3,01.16,0.508
2014-04-02 03:56:00,2961E-2,5C000400,-0724,0990,10555,022.3,045.1,0.162,756.3,01.16,0.508
2014-04-02 03:57:00,3046E-2,5C000400,-0724,0991,10503,022.3,045.1,0.162,756.3,01.16,0.508
2014-04-02 03:58:00,2999E-2,5C000400,-0724,0990,10457,022.3,045.1,0.162,756.0,01.16,0.508
2014-04-02 03:59:00,3026E-2,5C000400,-0724,0990,10625,022.3,045.1,0.162,756.1,01.16,0.508
2014-04-02 04:00:00,2966E-2,5C000400,-0724,0989,10659,022.3,045.1,0.162,756.2,01.16,0.508
2014-04-02 04:01:00,2992E-2,5C000400,-0724,0989,10619,022.3,045.1,0.162,756.2,01.16,0.508
2014-04-02 04:02:00,2987E-2,5C000400,-0724,0989,10663,022.3,045.1,0.162,756.1,01.16,0.508
2014-04-02 04:03:00,3026E-2,5C000400,-0724,0988,10555,022.3,045.1,0.162,756.2,01.16,0.508
2014-04-02 04:04:00,2981E-2,5C000400,-0724,0988,10756,022.3,045.1,0.162,756.1,01.16,0.508
2014-04-02 04:05:00,2959E-2,5C000400,-0724,0988,10745,022.3,045.1,0.162,755.9,01.16,0.508
2014-04-02 04:06:00,2955E-2,5C000400,-0724,0988,10475,022.4,045.1,0.162,755.9,01.16,0.508
2014-04-02 04:07:00,2990E-2,5C000400,-0724,0989,10718,022.3,045.1,0.162,756.2,01.16,0.508
2014-04-02 04:08:00,2993E-2,5C000400,-0724,0988,10638,022.3,045.1,0.162,756.0,01.16,0.508
2014-04-02 04:09:00,3001E-2,5C000400,-0724,0988,10715,022.3,045.1,0.162,756.0,01.16,0.508
2014-04-02 04:10:00,2997E-2,5C000400,-0724,0988,10620,022.3,045.1,0.162,756.0,01.16,0.508
2014-04-02 04:11:00,2994E-2,5C000400,-0724,0988,10707,022.3,045.1,0.162,756.0,01.16,0.508
2014-04-02 04:12:00,2974E-2,5C000400,-0724,0988,10804,022.3,045.1,0.162,755.9,01.16,0.508
2014-04-02 04:13:00,2970E-2,5C000400,-0724,0987,10668,022.3,045.1,0.162,755.9,01.16,0.508
2014-04-02 04:14:00,2992E-2,5C000400,-0724,0987,10635,022.3,045.1,0.162,755.9,01.16,0.508
2014-04-02 04:15:00,2985E-2,5C000400,-0724,0988,10647,022.3,045.1,0.162,755.9,01.16,0.508
2014-04-02 04:16:00,2977E-2,5C000400,-0724,0986,10747,022.3,045.1,0.162,755.9,01.16,0.508
2014-04-02 04:17:00,2965E-2,5C000400,-0724,0987,10678,022.3,045.1,0.162,755.9,01.16,0.508
2014-04-02 04:18:00,2949E-2,5C000400,-0724,0988,10637,022.4,045.1,0.162,755.8,01.16,0.508
2014-04-02 04:19:00,2981E-2,5C000400,-0724,0986,10657,022.4,045.1,0.162,755.9,01.16,0.508
2014-04-02 04:20:00,2953E-2,5C000400,-0724,0986,10683,022.4,045.1,0.162,755.7,01.16,0.508